Gadsden, AL

7:35 PM CST on December 13, 2019 (GMT -0600)
Gadsden Municipal

Weather History for KGAD - November, 2019

Change the Weather History Date:

Monday, November 18, 2019

  Actual Average Record
Temperature  
Mean Temperature 42 °F -  
Max Temperature 57 °F 60 °F 83 °F (1942)
Min Temperature 28 °F 37 °F 17 °F (2014)
Degree Days  
Heating Degree Days 22    
Moisture  
Dew Point 35 °F    
Average Humidity 80    
Maximum Humidity 100    
Minimum Humidity 47    
Precipitation  
Precipitation 0.00 in - - ()
Sea Level Pressure  
Sea Level Pressure 29.88 in    
Wind  
Wind Speed 2 mph ()    
Max Wind Speed 12 mph    
Max Gust Speed -    
Visibility 9.8 miles    
Events      
Averages and records for this station are not official NWS values.
T = Trace of Precipitation, MM = Missing Value Source: Averaged Metar Reports

Daily Weather History Graph

Daily Weather History Graph

Search for Another Location

Airport or City:

Astronomy

Nov. 18, 2019 Rise Set
Actual Time 6:19 AM CST 4:39 PM CST
Civil Twilight 5:52 AM CST 5:05 PM CST
Nautical Twilight 5:22 AM CST 5:36 PM CST
Astronomical Twilight 4:52 AM CST 6:06 PM CST
Moon 10:24 PM CST (11/18) 11:48 AM CST (11/18)
Length of Visible Light 11h 13m
Length of Day
10h 19m
Waning Gibbous, 63% of the Moon is Illuminated
Nov 18
Waning Gibbous
Nov 19
Last Quarter
Nov 26
New
Dec 4
First Quarter
Dec 11
Full

Hourly Weather History & Observations

Time (CST) Temp. Windchill Dew Point Humidity Pressure Visibility Wind Dir Wind Speed Gust Speed Precip Events Conditions
12:56 AM 36.0 °F - 35.1 °F 97% 29.91 in 10.0 mi Calm Calm - N/A   Clear
1:56 AM 32.0 °F - 30.9 °F 96% 29.89 in 10.0 mi Calm Calm - N/A   Clear
2:56 AM 30.9 °F - 30.0 °F 96% 29.90 in 10.0 mi Calm Calm - N/A   Clear
3:38 AM 30.2 °F - 30.2 °F 100% 29.87 in 6.0 mi Calm Calm - N/A   Clear
3:56 AM 30.0 °F - 28.9 °F 96% 29.88 in 10.0 mi Calm Calm - N/A   Clear
4:56 AM 28.9 °F - 28.0 °F 96% 29.89 in 10.0 mi Calm Calm - N/A   Clear
5:56 AM 30.0 °F - 28.9 °F 96% 29.91 in 10.0 mi Calm Calm - N/A   Partly Cloudy
6:56 AM 30.9 °F - 30.9 °F 100% 29.92 in 10.0 mi Calm Calm - N/A   Clear
7:56 AM 39.0 °F - 37.0 °F 93% 29.92 in 10.0 mi Calm Calm - N/A   Clear
8:56 AM 46.9 °F - 41.0 °F 80% 29.92 in 10.0 mi Calm Calm - N/A   Clear
9:56 AM 53.1 °F - 37.0 °F 55% 29.92 in 10.0 mi West 8.1 mph - N/A   Clear
10:56 AM 55.0 °F - 36.0 °F 49% 29.88 in 10.0 mi WSW 6.9 mph - N/A   Clear
12:56 PM 57.9 °F - 37.9 °F 47% 29.83 in 10.0 mi NW 11.5 mph - N/A   Clear
1:56 PM 57.9 °F - 39.0 °F 49% 29.83 in 10.0 mi NW 9.2 mph - N/A   Clear
2:56 PM 57.9 °F - 37.9 °F 47% 29.83 in 10.0 mi West 6.9 mph - N/A   Clear
3:56 PM 54.0 °F - 39.0 °F 57% 29.84 in 10.0 mi WSW 6.9 mph - N/A   Clear
4:56 PM 48.0 °F - 37.9 °F 68% 29.85 in 10.0 mi WSW 3.5 mph - N/A   Clear
5:56 PM 44.1 °F 42.5 °F 37.9 °F 79% 29.86 in 10.0 mi West 3.5 mph - N/A   Clear
6:56 PM 41.0 °F 38.0 °F 37.0 °F 86% 29.86 in 10.0 mi WNW 4.6 mph - N/A   Clear
8:56 PM 39.9 °F - 36.0 °F 86% 29.88 in 10.0 mi Calm Calm - N/A   Clear
9:56 PM 39.9 °F - 37.0 °F 89% 29.89 in 10.0 mi Calm Calm - N/A   Mostly Cloudy
10:56 PM 39.0 °F 35.7 °F 37.0 °F 93% 29.89 in 10.0 mi WSW 4.6 mph - N/A   Scattered Clouds
11:56 PM 37.9 °F 34.4 °F 36.0 °F 93% 29.89 in 10.0 mi West 4.6 mph - N/A   Clear